SCP
0 0 0 -0 0 0 -0 0 -0 -0 -0 0 0 0 0 0 0 0 -0 0 -0 -0 -0 -0 -0 -0 -0 -0 -0 -0 -0 -0 -0 -0 -0 -0 -0 -0 -0 0 -0 0 0 0 0 0 0 0 0
0 0 0 -0 0 -0 -0 0 -0 -0 -0 -0 0 0 0 0 0 0 0 0 -0 -0 -0 -0 0 -0 -0 -0 -0 -0 -0 -0 -0 -0 -0 -0 -0 -0 -0 -0 0 0 0 0 0 0 0 0 0
0 0 -0 -0 -0 -0 0 0 -0 -0 -0 0 -0 0 0 0 0 0 0 0 -0 -0 -0 -0 0 -0 -0 -0 -0 -0 -0 -0 -0 -0 -0 -0 -0 -0 -0 -0 0 0 0 0 0 0 0 0 0
0 0 -0 0 -0 -0 -0 0 0 0 -0 0 -0 0 0 0 0 0 0 0 -0 -0 -0 -0 0 0 -0 -0 -0 -0 -0 -0 -0 -0 -0 -0 -0 -0 -0 0 0 0 0 0 0 0 0 0 0
0 -0 -0 -0 0 0 0 -0 -0 -0 0 0 0 0 0 0 0 0 0 0 -0 -0 -0 -0 0 -0 -0 -0 -0 -0 -0 -0 -0 -0 -0 0 0 0 0 0 0 0 0 0 0 0 0 0 0
0 0 0 0 0 -0 -0 -0 -0 -0 -0 0 0 0 0 0 0 0 0 0 -0 -0 -0 -0 -0 -0 -0 -0 -0 -0 -0 -0 -0 -0 0 0 0 0 0 0 0 0 0 0 0 0 0 0 0
0 0 0 -0 -0 -0 0 -0 0 0 -0 0 0 0 0 0 0 0 0 0 -0 -0 -0 -0 -0 0 0 -0 -0 -0 -0 -0 -0 0 0 0 0 0 0 0 0 0 0 0 0 0 0 0 0
0 0 0 -0 -0 0 0 0 0 0 0 0 0 0 0 0 0 0 0 0 0 -0 -0 -0 0 0 0 0 0 -0 -0 -0 0 0 0 0 0 0 0 0 0 0 0 0 0 0 0 0 0
-0 0 0 0 0 -0 -0 0 0 0 0 0 0 0 0 0 0 0 0 0 0 -0 -0 0 -0 -0 0 0 -0 0 0 0 0 0 0 0 0 0 0 0 0 0 0 0 0 0 0 0 0
-0 0 0 0 0 -0 -0 -0 -0 0 0 0 0 0 0 0 0 0 0 0 -0 0 0 0 0 0 0 0 0 0 0 0 0 0 0 0 0 0 0 0 0 0 0 0 0 0 0 0 0
0 -0 -0 0 0 0 0 0 0 0 0 0 0 0 0 0 0 0 0 -0 -0 -0 0 0 0 0 0 0 0 0 0 0 0 0 0 0 0 0 0 0 0 0 0 0 0 0 0 0 0
0 0 0 -0 0 0 0 0 0 0 0 0 -0 0 0 0 0 -0 -0 -0 -0 -0 0 0 0 0 0 0 0 0 0 0 0 0 0 0 0 0 0 0 0 0 0 0 0 0 0 0 0
0 0 0 0 0 0 0 0 -0 0 -0 0 0 0 0 0 0 -0 -0 -0 -0 -0 0 0 0 0 0 0 0 0 0 0 0 0 0 0 0 0 0 0 0 0 0 0 -0 0 -0 0 0
0 0 0 0 0 0 0 -0 -0 0 0 0 0 0 0 0 0 0 0 -0 -0 0 0 0 0 0 0 0 0 0 0 0 0 0 0 0 0 0 0 0 0 0 0 0 0 0 0 -0 0
0 0 0 0 0 0 0 0 0 0 0 0 0 0 0 0 0 0 0 0 0 0 0 0 0 0 0 0 0 0 0 0 0 0 0 0 0 0 0 0 0 0 0 0 0 0 0 0 0
0 0 0 0 0 0 0 0 0 0 0 0 0 0 0 0 0 0 0 0 0 0 0 0 0 0 0 0 0 0 0 0 0 0 0 0 0 0 0 0 0 0 0 0 0 0 0 0 0
0 0 0 0 0 0 0 0 0 0 0 0 0 0 0 0 0 0 0 0 0 0 0 0 0 0 0 0 0 0 0 0 0 0 0 0 0 0 0 0 0 0 0 0 0 0 0 0 0
0 0 0 0 0 0 0 0 0 0 0 0 0 0 0 0 0 0 0 0 0 0 0 0 0 0 0 0 0 0 0 0 0 0 0 0 0 0 0 0 0 0 0 0 0 0 0 0 0
0 0 0 0 0 0 0 0 0 0 0 0 0 0 0 0 0 0 0 0 0 0 0 0 0 0 0 0 0 0 0 0 0 0 0 0 0 0 0 0 0 0 0 0 -0 0 0 0 0
0 0 0 0 0 0 0 0 0 0 0 0 0 0 0 0 0 0 0 0 0 0 0 0 0 0 0 0 0 0 0 0 0 0 0 0 0 0 0 0 0 0 0 0 0 0 0 0 0
0 0 0 0 0 0 0 0 0 0 0 0 0 0 0 0 0 0 0 0 0 0 0 0 0 0 0 0 0 0 0 0 0 0 0 0 0 0 0 0 0 0 0 0 0 0 0 -0 0
0 0 0 0 0 0 0 0 0 0 0 0 0 0 0 0 0 0 0 0 0 0 0 0 0 0 0 0 0 0 0 0 0 0 0 0 0 0 0 0 0 0 0 0 0 0 0 -0 0
0 0 0 0 0 0 0 0 0 0 0 0 0 0 0 0 0 0 0 0 0 0 0 0 0 0 0 0 0 0 0 0 0 0 0 0 0 0 0 0 0 0 0 0 0 0 0 0 0
0 0 0 0 0 0 0 0 0 0 0 0 0 0 0 0 0 0 0 0 0 0 0 0 0 0 0 0 0 0 0 0 0 0 0 0 0 0 0 0 0 0 0 0 0 0 0 0 0
0 0 0 0 0 0 0 0 0 0 0 0 0 0 0 0 0 0 0 0 0 0 0 0 0 0 0 0 0 0 0 0 0 0 0 0 0 0 0 0 0 0 0 0 0 0 0 0 0
0 0 0 0 0 0 0 0 0 0 0 0 0 0 0 0 0 0 0 0 0 0 0 0 0 0 0 0 0 0 0 0 0 0 0 0 0 0 0 0 0 0 0 0 0 0 0 0 0
0 0 0 0 0 0 0 0 0 0 0 0 0 0 0 0 0 0 0 0 0 0 0 0 0 0 0 0 0 0 0 0 0 0 0 0 0 0 0 0 0 0 0 0 0 0 0 0 0
0 0 0 0 0 0 0 0 0 0 0 0 0 0 0 0 0 -0 0 0 0 0 0 0 0 0 0 0 0 0 0 0 0 0 0 0 0 0 0 0 0 0 0 0 0 0 0 0 0
0 0 0 0 0 0 0 0 0 0 0 0 0 0 0 0 0 0 0 0 0 0 0 0 0 0 0 0 0 0 0 0 0 0 0 0 0 0 0 0 0 0 0 0 0 0 0 0 0
0 0 0 0 0 0 0 0 0 0 0 0 0 0 0 0 0 -0 0 0 0 0 0 0 0 0 0 0 0 0 0 0 0 0 0 0 0 0 0 0 0 0 0 0 0 0 0 0 0
Wind_Speed_500mb
13 5 7 9 11 10 6 12 4 6 6 6 11 16 21 15 5 6 17 8 6 13 20 24 26 24 25 26 24 22 21 21 22 22 22 23 25 27 31 30 32 32 33 33 33 36 35 34 38
10 5 3 7 10 9 8 10 6 5 12 31 23 16 19 6 7 16 13 2 8 16 21 23 24 22 22 23 21 20 20 17 22 27 29 31 31 28 32 35 35 36 37 37 37 42 40 40 39
7 9 3 8 8 10 9 8 15 14 12 9 11 17 10 10 10 10 7 2 9 17 21 21 20 22 24 24 21 19 17 18 21 24 27 32 32 32 35 38 37 38 39 41 42 41 43 44 47
8 2 4 10 12 1 10 14 24 14 10 9 30 15 13 9 11 10 9 1 11 17 20 22 24 22 22 22 19 17 14 17 21 27 29 35 37 38 39 35 33 35 35 38 41 44 48 50 44
8 4 6 9 7 8 10 42 33 9 14 12 9 12 11 10 11 13 8 5 13 18 21 20 19 20 19 21 19 16 17 22 26 28 27 34 37 38 34 34 36 40 39 41 42 45 47 51 47
6 4 6 8 7 8 13 29 24 21 24 15 15 15 8 9 13 10 6 7 13 19 21 22 20 18 17 19 23 22 23 27 29 28 28 33 33 32 31 32 37 37 35 40 37 41 48 39 41
3 5 4 11 14 9 9 21 10 24 22 6 10 8 13 16 14 10 5 8 13 19 21 19 16 15 15 20 21 24 29 29 28 26 26 30 28 28 28 31 36 34 33 34 33 38 36 42 39
5 6 3 5 9 7 10 9 12 24 6 14 7 11 12 25 17 13 6 7 14 19 17 12 13 13 16 18 19 23 28 29 28 26 27 29 27 29 32 32 29 25 25 39 37 32 41 42 40
6 8 7 10 10 10 20 6 7 13 18 10 7 11 12 22 19 16 9 7 12 14 12 15 14 15 18 20 22 25 26 27 27 27 28 29 34 34 33 29 24 22 27 34 36 38 42 43 45
6 7 4 9 4 12 21 9 16 9 16 7 12 16 21 20 20 15 10 3 6 10 13 15 14 16 19 19 21 22 24 26 28 29 29 33 35 34 30 27 28 27 28 31 39 43 41 38 40
2 7 10 9 14 23 12 13 10 16 7 17 26 33 27 23 21 17 15 7 2 8 11 12 14 15 15 17 19 21 24 27 30 31 32 33 33 32 32 32 33 32 34 44 46 50 48 44 42
10 17 10 5 9 12 9 13 6 9 5 10 16 16 25 25 23 21 16 9 2 6 8 11 12 9 12 16 19 23 24 27 29 30 31 30 30 32 36 38 37 36 41 44 44 42 38 37 38
8 7 11 11 11 13 6 4 5 9 15 10 11 19 21 22 22 22 16 9 4 3 7 10 7 7 11 15 18 20 23 25 28 28 28 28 29 34 35 38 39 38 35 37 36 38 34 35 37
12 19 16 9 8 6 4 3 4 8 26 16 15 20 21 22 28 27 20 15 8 3 5 6 5 7 11 13 15 18 21 24 24 25 27 27 28 31 34 35 39 39 35 35 34 33 32 35 37
29 10 6 7 8 3 1 7 11 18 31 24 23 22 21 24 30 23 20 16 10 6 4 5 4 7 9 11 13 16 18 21 22 24 24 24 26 30 31 34 37 39 35 33 30 29 26 26 33
6 10 4 4 12 3 4 14 2 25 27 24 22 27 28 30 30 24 21 16 12 8 6 5 5 7 8 9 11 14 17 18 19 21 21 22 25 27 29 33 36 34 33 35 34 27 24 19 23
2 5 10 4 12 4 7 12 9 17 18 21 28 28 35 33 33 29 27 20 15 13 9 7 7 9 10 8 10 12 14 15 18 18 18 21 22 24 27 31 34 33 32 33 38 35 23 17 15
12 7 8 11 9 4 7 17 15 22 26 25 27 35 40 37 37 35 34 27 23 18 14 12 11 12 12 9 9 10 12 13 15 16 17 19 21 23 24 29 31 31 32 34 34 37 26 19 11
10 9 8 2 3 9 13 15 21 28 34 26 28 31 47 43 32 35 34 29 26 24 20 16 14 16 14 9 7 8 9 12 13 15 17 18 19 20 23 26 27 31 32 34 33 33 32 19 12
1 7 3 2 5 4 6 19 23 17 23 42 41 36 35 46 45 46 40 31 27 27 23 19 17 19 16 10 5 7 9 10 11 14 14 16 17 19 21 24 28 31 31 30 32 31 29 32 8
7 7 7 3 2 2 6 15 4 6 20 21 18 19 11 35 54 54 47 35 28 30 27 22 19 20 16 13 9 8 7 7 9 11 11 14 16 18 20 23 25 27 28 30 33 32 31 32 29
13 5 12 12 6 5 6 8 9 6 9 11 21 18 16 15 46 54 50 39 28 27 30 26 23 20 20 18 14 10 8 7 9 9 10 13 15 16 18 20 22 25 28 29 33 33 32 30 30
7 9 14 7 7 8 4 6 13 10 6 9 15 14 9 11 18 50 49 36 26 27 32 31 27 21 20 20 17 12 11 11 9 8 8 10 12 14 16 18 20 23 27 31 31 30 30 33 33
13 13 17 11 7 3 10 12 10 9 12 11 10 9 5 14 17 27 36 32 27 28 31 30 27 23 23 22 18 14 13 13 9 8 8 7 9 10 13 16 17 21 25 28 29 29 32 34 34
8 12 6 7 4 11 9 7 16 7 7 14 18 14 11 14 18 27 38 36 33 32 30 31 28 25 24 23 20 16 16 15 11 9 8 7 8 9 10 14 16 18 23 26 27 26 31 32 32
12 10 11 16 9 7 8 11 10 6 19 24 20 17 14 14 20 26 30 33 32 33 31 32 30 27 26 24 21 18 15 13 12 11 11 9 9 9 10 11 14 16 20 24 22 27 29 31 31
11 8 8 12 5 7 7 7 2 5 9 18 22 19 14 13 17 22 29 31 33 34 32 34 32 28 26 25 22 17 14 15 14 13 12 11 10 9 9 10 12 14 17 22 19 26 26 28 29
3 3 6 5 6 6 8 7 9 15 16 14 18 20 15 11 11 17 24 29 31 29 31 35 31 26 26 26 24 20 18 18 17 16 15 13 12 11 11 10 11 13 15 18 19 20 27 24 27
4 5 2 6 8 10 6 11 4 22 25 23 28 21 14 11 10 11 15 23 26 25 30 35 33 31 30 29 27 23 20 18 17 16 15 14 12 12 10 9 9 11 14 16 16 17 24 22 24
2 9 11 9 10 5 5 9 14 17 30 37 28 20 13 9 8 8 8 16 25 27 28 34 35 34 30 29 27 25 21 19 18 17 16 16 16 15 14 12 11 10 12 14 12 16 20 19 21
Wind_Direction_500mb
348 344 66 71 63 85 355 281 154 162 57 109 90 71 113 76 40 115 159 222 318 340 357 355 358 4 10 20 18 19 18 23 31 27 32 32 30 34 38 32 31 30 31 22 19 17 11 6 5
352 2 10 123 96 114 221 244 103 335 151 114 82 80 47 81 59 138 161 278 351 349 4 1 6 13 16 26 23 21 26 31 42 42 47 51 48 50 47 40 38 38 37 29 31 27 23 20 19
8 339 348 104 108 157 169 169 126 143 149 109 80 81 90 100 107 170 154 274 360 356 9 9 16 23 24 28 22 24 27 40 59 60 60 54 47 46 48 45 44 45 40 39 37 32 27 38 48
352 349 257 94 136 327 130 155 135 139 94 92 126 77 92 133 182 171 164 20 4 2 15 20 26 25 25 30 32 25 36 66 66 64 61 54 47 48 55 51 48 45 47 50 43 43 46 41 32
358 295 36 81 77 103 97 145 153 173 132 153 141 148 100 170 188 161 144 33 11 14 18 27 28 28 33 41 42 43 59 61 59 59 58 59 49 49 55 60 59 55 54 50 46 48 40 35 34
353 336 40 109 110 112 132 163 144 126 133 138 122 115 138 164 178 161 122 35 17 18 23 25 32 36 46 48 51 52 63 60 57 54 53 57 54 53 57 62 57 51 56 50 45 48 42 44 46
85 70 155 150 134 109 148 156 113 136 128 127 132 80 143 189 176 172 107 45 30 25 28 26 30 52 62 57 59 60 65 59 56 48 48 57 56 53 57 56 55 50 50 50 47 53 51 47 48
326 90 303 142 138 120 139 107 88 122 130 128 112 160 182 188 179 162 93 50 38 30 29 31 46 66 80 72 67 65 59 53 49 48 53 58 58 57 53 51 53 51 50 49 44 58 52 47 45
331 47 358 352 123 151 138 106 68 102 122 118 110 164 145 149 174 148 139 61 16 31 38 43 53 70 73 71 62 55 53 54 56 60 62 64 60 56 52 51 54 53 52 55 52 60 62 58 53
73 85 41 330 87 147 158 139 145 138 134 119 127 147 157 170 162 148 141 185 359 26 43 49 62 80 83 71 65 59 57 61 61 65 66 66 63 61 57 54 54 51 52 60 58 64 59 57 51
30 128 171 14 42 136 120 127 143 140 217 191 194 181 177 174 164 158 185 226 297 39 47 55 70 80 81 80 70 64 64 66 68 70 69 68 69 69 66 62 59 55 57 60 58 58 54 52 51
99 52 114 117 64 95 106 140 152 211 164 153 161 172 182 180 172 187 198 197 140 59 59 61 70 86 92 78 72 64 70 76 79 76 76 73 71 68 62 58 57 53 55 60 65 60 52 47 40
108 127 81 107 98 88 123 136 192 219 180 204 151 172 183 180 175 196 211 207 192 96 73 65 71 105 100 83 71 70 78 80 76 76 74 72 68 65 62 59 56 53 53 59 60 54 53 52 49
119 121 124 134 119 96 115 187 225 235 191 192 196 185 188 189 192 200 210 208 194 149 98 92 102 119 105 91 78 80 83 83 81 79 76 72 70 69 65 62 58 53 46 53 56 64 51 55 47
138 95 112 167 176 110 109 272 231 167 175 180 190 193 197 195 210 221 222 207 205 179 140 120 129 143 116 93 80 86 90 85 83 81 78 76 74 70 66 63 59 55 50 51 55 61 68 46 49
102 87 105 218 150 191 122 264 281 183 192 194 194 193 202 202 218 227 225 217 211 203 180 163 159 162 133 104 90 91 89 87 86 84 80 78 75 71 69 64 61 57 55 54 56 61 75 55 47
352 197 201 239 199 132 157 260 201 189 202 205 208 203 203 203 211 226 225 231 222 211 196 189 182 176 155 123 102 101 96 93 90 84 83 80 76 72 68 66 61 58 55 53 52 56 71 74 56
188 209 223 184 211 124 175 255 266 239 215 208 209 211 208 214 221 225 225 231 224 210 200 197 190 182 173 143 118 115 108 100 97 95 87 81 76 72 68 68 65 59 55 54 52 50 65 96 76
157 186 135 150 251 174 224 256 259 258 217 218 206 209 213 221 223 224 228 231 223 212 205 201 194 187 191 178 138 128 130 116 104 95 87 84 78 74 73 69 69 64 58 57 59 58 57 98 118
34 145 132 95 181 167 1 276 256 232 220 219 216 214 220 215 205 210 221 227 225 217 208 204 197 198 201 199 161 170 161 127 105 94 89 86 79 72 71 69 65 61 57 60 61 59 63 76 143
189 177 171 152 150 268 332 301 277 46 110 137 166 179 168 216 204 205 213 222 224 218 212 204 202 209 206 208 201 198 168 133 113 108 100 92 82 76 74 71 68 66 63 62 61 57 56 61 66
175 193 127 130 96 230 101 270 310 154 124 115 127 121 117 146 206 209 211 215 223 218 208 204 208 212 208 210 208 201 194 174 149 127 104 90 86 82 80 77 74 69 65 65 63 60 57 57 64
174 127 137 127 103 68 277 70 269 120 171 165 115 129 147 170 197 210 214 218 221 218 210 206 210 212 211 213 215 216 210 197 172 140 113 100 91 86 84 79 75 72 68 65 63 63 61 62 62
145 75 40 45 77 22 230 149 277 202 191 140 143 139 161 175 191 196 206 210 215 216 209 209 207 206 208 209 213 214 207 200 184 158 137 117 102 96 91 86 79 74 73 71 64 62 64 65 62
90 89 28 5 356 220 341 102 248 185 128 157 156 136 128 149 175 180 192 201 212 214 213 210 203 202 203 205 208 210 208 201 191 178 160 151 126 113 105 92 85 80 78 75 68 67 67 67 62
177 163 155 195 196 235 336 220 261 110 117 128 135 136 138 149 162 178 199 212 216 217 217 210 201 199 198 201 207 210 207 203 198 190 185 174 153 141 123 109 95 86 84 79 74 72 68 68 62
198 183 168 106 15 74 210 266 282 129 136 143 146 158 159 158 164 181 197 215 218 219 220 209 201 198 200 204 209 210 208 206 206 203 198 186 172 157 141 125 111 100 91 85 78 76 75 72 66
149 177 92 351 131 232 261 237 221 194 190 180 159 162 163 164 172 180 194 212 221 222 217 207 202 205 206 207 208 210 209 209 210 208 204 197 188 174 164 150 133 114 101 92 83 78 80 72 69
149 175 207 138 148 170 177 253 154 205 179 177 176 168 168 175 191 188 191 206 220 215 212 209 206 209 209 210 213 215 216 216 215 214 212 206 199 189 179 168 139 122 107 98 84 84 81 73 69
297 202 173 159 196 206 159 264 323 192 161 166 166 164 165 174 177 170 189 206 212 213 211 211 210 213 213 216 217 219 221 220 219 218 215 210 206 196 186 180 170 154 131 115 111 94 89 79 76
Wind_Speed_850mb
13 5 7 9 11 10 6 12 4 6 6 6 11 16 21 15 5 6 17 8 6 13 20 24 26 24 25 26 24 22 21 21 22 22 22 23 25 27 31 30 32 32 33 33 33 36 35 34 38
10 5 3 7 10 9 8 10 6 5 12 31 23 16 19 6 7 16 13 2 8 16 21 23 24 22 22 23 21 20 20 17 22 27 29 31 31 28 32 35 35 36 37 37 37 42 40 40 39
7 9 3 8 8 10 9 8 15 14 12 9 11 17 10 10 10 10 7 2 9 17 21 21 20 22 24 24 21 19 17 18 21 24 27 32 32 32 35 38 37 38 39 41 42 41 43 44 47
8 2 4 10 12 1 10 14 24 14 10 9 30 15 13 9 11 10 9 1 11 17 20 22 24 22 22 22 19 17 14 17 21 27 29 35 37 38 39 35 33 35 35 38 41 44 48 50 44
8 4 6 9 7 8 10 42 33 9 14 12 9 12 11 10 11 13 8 5 13 18 21 20 19 20 19 21 19 16 17 22 26 28 27 34 37 38 34 34 36 40 39 41 42 45 47 51 47
6 4 6 8 7 8 13 29 24 21 24 15 15 15 8 9 13 10 6 7 13 19 21 22 20 18 17 19 23 22 23 27 29 28 28 33 33 32 31 32 37 37 35 40 37 41 48 39 41
3 5 4 11 14 9 9 21 10 24 22 6 10 8 13 16 14 10 5 8 13 19 21 19 16 15 15 20 21 24 29 29 28 26 26 30 28 28 28 31 36 34 33 34 33 38 36 42 39
5 6 3 5 9 7 10 9 12 24 6 14 7 11 12 25 17 13 6 7 14 19 17 12 13 13 16 18 19 23 28 29 28 26 27 29 27 29 32 32 29 25 25 39 37 32 41 42 40
6 8 7 10 10 10 20 6 7 13 18 10 7 11 12 22 19 16 9 7 12 14 12 15 14 15 18 20 22 25 26 27 27 27 28 29 34 34 33 29 24 22 27 34 36 38 42 43 45
6 7 4 9 4 12 21 9 16 9 16 7 12 16 21 20 20 15 10 3 6 10 13 15 14 16 19 19 21 22 24 26 28 29 29 33 35 34 30 27 28 27 28 31 39 43 41 38 40
2 7 10 9 14 23 12 13 10 16 7 17 26 33 27 23 21 17 15 7 2 8 11 12 14 15 15 17 19 21 24 27 30 31 32 33 33 32 32 32 33 32 34 44 46 50 48 44 42
10 17 10 5 9 12 9 13 6 9 5 10 16 16 25 25 23 21 16 9 2 6 8 11 12 9 12 16 19 23 24 27 29 30 31 30 30 32 36 38 37 36 41 44 44 42 38 37 38
8 7 11 11 11 13 6 4 5 9 15 10 11 19 21 22 22 22 16 9 4 3 7 10 7 7 11 15 18 20 23 25 28 28 28 28 29 34 35 38 39 38 35 37 36 38 34 35 37
12 19 16 9 8 6 4 3 4 8 26 16 15 20 21 22 28 27 20 15 8 3 5 6 5 7 11 13 15 18 21 24 24 25 27 27 28 31 34 35 39 39 35 35 34 33 32 35 37
29 10 6 7 8 3 1 7 11 18 31 24 23 22 21 24 30 23 20 16 10 6 4 5 4 7 9 11 13 16 18 21 22 24 24 24 26 30 31 34 37 39 35 33 30 29 26 26 33
6 10 4 4 12 3 4 14 2 25 27 24 22 27 28 30 30 24 21 16 12 8 6 5 5 7 8 9 11 14 17 18 19 21 21 22 25 27 29 33 36 34 33 35 34 27 24 19 23
2 5 10 4 12 4 7 12 9 17 18 21 28 28 35 33 33 29 27 20 15 13 9 7 7 9 10 8 10 12 14 15 18 18 18 21 22 24 27 31 34 33 32 33 38 35 23 17 15
12 7 8 11 9 4 7 17 15 22 26 25 27 35 40 37 37 35 34 27 23 18 14 12 11 12 12 9 9 10 12 13 15 16 17 19 21 23 24 29 31 31 32 34 34 37 26 19 11
10 9 8 2 3 9 13 15 21 28 34 26 28 31 47 43 32 35 34 29 26 24 20 16 14 16 14 9 7 8 9 12 13 15 17 18 19 20 23 26 27 31 32 34 33 33 32 19 12
1 7 3 2 5 4 6 19 23 17 23 42 41 36 35 46 45 46 40 31 27 27 23 19 17 19 16 10 5 7 9 10 11 14 14 16 17 19 21 24 28 31 31 30 32 31 29 32 8
7 7 7 3 2 2 6 15 4 6 20 21 18 19 11 35 54 54 47 35 28 30 27 22 19 20 16 13 9 8 7 7 9 11 11 14 16 18 20 23 25 27 28 30 33 32 31 32 29
13 5 12 12 6 5 6 8 9 6 9 11 21 18 16 15 46 54 50 39 28 27 30 26 23 20 20 18 14 10 8 7 9 9 10 13 15 16 18 20 22 25 28 29 33 33 32 30 30
7 9 14 7 7 8 4 6 13 10 6 9 15 14 9 11 18 50 49 36 26 27 32 31 27 21 20 20 17 12 11 11 9 8 8 10 12 14 16 18 20 23 27 31 31 30 30 33 33
13 13 17 11 7 3 10 12 10 9 12 11 10 9 5 14 17 27 36 32 27 28 31 30 27 23 23 22 18 14 13 13 9 8 8 7 9 10 13 16 17 21 25 28 29 29 32 34 34
8 12 6 7 4 11 9 7 16 7 7 14 18 14 11 14 18 27 38 36 33 32 30 31 28 25 24 23 20 16 16 15 11 9 8 7 8 9 10 14 16 18 23 26 27 26 31 32 32
12 10 11 16 9 7 8 11 10 6 19 24 20 17 14 14 20 26 30 33 32 33 31 32 30 27 26 24 21 18 15 13 12 11 11 9 9 9 10 11 14 16 20 24 22 27 29 31 31
11 8 8 12 5 7 7 7 2 5 9 18 22 19 14 13 17 22 29 31 33 34 32 34 32 28 26 25 22 17 14 15 14 13 12 11 10 9 9 10 12 14 17 22 19 26 26 28 29
3 3 6 5 6 6 8 7 9 15 16 14 18 20 15 11 11 17 24 29 31 29 31 35 31 26 26 26 24 20 18 18 17 16 15 13 12 11 11 10 11 13 15 18 19 20 27 24 27
4 5 2 6 8 10 6 11 4 22 25 23 28 21 14 11 10 11 15 23 26 25 30 35 33 31 30 29 27 23 20 18 17 16 15 14 12 12 10 9 9 11 14 16 16 17 24 22 24
2 9 11 9 10 5 5 9 14 17 30 37 28 20 13 9 8 8 8 16 25 27 28 34 35 34 30 29 27 25 21 19 18 17 16 16 16 15 14 12 11 10 12 14 12 16 20 19 21
Wind_Direction_850mb
348 344 66 71 63 85 355 281 154 162 57 109 90 71 113 76 40 115 159 222 318 340 357 355 358 4 10 20 18 19 18 23 31 27 32 32 30 34 38 32 31 30 31 22 19 17 11 6 5
352 2 10 123 96 114 221 244 103 335 151 114 82 80 47 81 59 138 161 278 351 349 4 1 6 13 16 26 23 21 26 31 42 42 47 51 48 50 47 40 38 38 37 29 31 27 23 20 19
8 339 348 104 108 157 169 169 126 143 149 109 80 81 90 100 107 170 154 274 360 356 9 9 16 23 24 28 22 24 27 40 59 60 60 54 47 46 48 45 44 45 40 39 37 32 27 38 48
352 349 257 94 136 327 130 155 135 139 94 92 126 77 92 133 182 171 164 20 4 2 15 20 26 25 25 30 32 25 36 66 66 64 61 54 47 48 55 51 48 45 47 50 43 43 46 41 32
358 295 36 81 77 103 97 145 153 173 132 153 141 148 100 170 188 161 144 33 11 14 18 27 28 28 33 41 42 43 59 61 59 59 58 59 49 49 55 60 59 55 54 50 46 48 40 35 34
353 336 40 109 110 112 132 163 144 126 133 138 122 115 138 164 178 161 122 35 17 18 23 25 32 36 46 48 51 52 63 60 57 54 53 57 54 53 57 62 57 51 56 50 45 48 42 44 46
85 70 155 150 134 109 148 156 113 136 128 127 132 80 143 189 176 172 107 45 30 25 28 26 30 52 62 57 59 60 65 59 56 48 48 57 56 53 57 56 55 50 50 50 47 53 51 47 48
326 90 303 142 138 120 139 107 88 122 130 128 112 160 182 188 179 162 93 50 38 30 29 31 46 66 80 72 67 65 59 53 49 48 53 58 58 57 53 51 53 51 50 49 44 58 52 47 45
331 47 358 352 123 151 138 106 68 102 122 118 110 164 145 149 174 148 139 61 16 31 38 43 53 70 73 71 62 55 53 54 56 60 62 64 60 56 52 51 54 53 52 55 52 60 62 58 53
73 85 41 330 87 147 158 139 145 138 134 119 127 147 157 170 162 148 141 185 359 26 43 49 62 80 83 71 65 59 57 61 61 65 66 66 63 61 57 54 54 51 52 60 58 64 59 57 51
30 128 171 14 42 136 120 127 143 140 217 191 194 181 177 174 164 158 185 226 297 39 47 55 70 80 81 80 70 64 64 66 68 70 69 68 69 69 66 62 59 55 57 60 58 58 54 52 51
99 52 114 117 64 95 106 140 152 211 164 153 161 172 182 180 172 187 198 197 140 59 59 61 70 86 92 78 72 64 70 76 79 76 76 73 71 68 62 58 57 53 55 60 65 60 52 47 40
108 127 81 107 98 88 123 136 192 219 180 204 151 172 183 180 175 196 211 207 192 96 73 65 71 105 100 83 71 70 78 80 76 76 74 72 68 65 62 59 56 53 53 59 60 54 53 52 49
119 121 124 134 119 96 115 187 225 235 191 192 196 185 188 189 192 200 210 208 194 149 98 92 102 119 105 91 78 80 83 83 81 79 76 72 70 69 65 62 58 53 46 53 56 64 51 55 47
138 95 112 167 176 110 109 272 231 167 175 180 190 193 197 195 210 221 222 207 205 179 140 120 129 143 116 93 80 86 90 85 83 81 78 76 74 70 66 63 59 55 50 51 55 61 68 46 49
102 87 105 218 150 191 122 264 281 183 192 194 194 193 202 202 218 227 225 217 211 203 180 163 159 162 133 104 90 91 89 87 86 84 80 78 75 71 69 64 61 57 55 54 56 61 75 55 47
352 197 201 239 199 132 157 260 201 189 202 205 208 203 203 203 211 226 225 231 222 211 196 189 182 176 155 123 102 101 96 93 90 84 83 80 76 72 68 66 61 58 55 53 52 56 71 74 56
188 209 223 184 211 124 175 255 266 239 215 208 209 211 208 214 221 225 225 231 224 210 200 197 190 182 173 143 118 115 108 100 97 95 87 81 76 72 68 68 65 59 55 54 52 50 65 96 76
157 186 135 150 251 174 224 256 259 258 217 218 206 209 213 221 223 224 228 231 223 212 205 201 194 187 191 178 138 128 130 116 104 95 87 84 78 74 73 69 69 64 58 57 59 58 57 98 118
34 145 132 95 181 167 1 276 256 232 220 219 216 214 220 215 205 210 221 227 225 217 208 204 197 198 201 199 161 170 161 127 105 94 89 86 79 72 71 69 65 61 57 60 61 59 63 76 143
189 177 171 152 150 268 332 301 277 46 110 137 166 179 168 216 204 205 213 222 224 218 212 204 202 209 206 208 201 198 168 133 113 108 100 92 82 76 74 71 68 66 63 62 61 57 56 61 66
175 193 127 130 96 230 101 270 310 154 124 115 127 121 117 146 206 209 211 215 223 218 208 204 208 212 208 210 208 201 194 174 149 127 104 90 86 82 80 77 74 69 65 65 63 60 57 57 64
174 127 137 127 103 68 277 70 269 120 171 165 115 129 147 170 197 210 214 218 221 218 210 206 210 212 211 213 215 216 210 197 172 140 113 100 91 86 84 79 75 72 68 65 63 63 61 62 62
145 75 40 45 77 22 230 149 277 202 191 140 143 139 161 175 191 196 206 210 215 216 209 209 207 206 208 209 213 214 207 200 184 158 137 117 102 96 91 86 79 74 73 71 64 62 64 65 62
90 89 28 5 356 220 341 102 248 185 128 157 156 136 128 149 175 180 192 201 212 214 213 210 203 202 203 205 208 210 208 201 191 178 160 151 126 113 105 92 85 80 78 75 68 67 67 67 62
177 163 155 195 196 235 336 220 261 110 117 128 135 136 138 149 162 178 199 212 216 217 217 210 201 199 198 201 207 210 207 203 198 190 185 174 153 141 123 109 95 86 84 79 74 72 68 68 62
198 183 168 106 15 74 210 266 282 129 136 143 146 158 159 158 164 181 197 215 218 219 220 209 201 198 200 204 209 210 208 206 206 203 198 186 172 157 141 125 111 100 91 85 78 76 75 72 66
149 177 92 351 131 232 261 237 221 194 190 180 159 162 163 164 172 180 194 212 221 222 217 207 202 205 206 207 208 210 209 209 210 208 204 197 188 174 164 150 133 114 101 92 83 78 80 72 69
149 175 207 138 148 170 177 253 154 205 179 177 176 168 168 175 191 188 191 206 220 215 212 209 206 209 209 210 213 215 216 216 215 214 212 206 199 189 179 168 139 122 107 98 84 84 81 73 69
297 202 173 159 196 206 159 264 323 192 161 166 166 164 165 174 177 170 189 206 212 213 211 211 210 213 213 216 217 219 221 220 219 218 215 210 206 196 186 180 170 154 131 115 111 94 89 79 76